User: anonymous   Login
Location: Santa Barbara
(34.4500°N, 119.7700°W)
Time: 16:38:45
(UTC-07:00)
Language:

Cosmos 1626 Rocket - Orbit

View from above orbital plane
View from above orbital plane
View from above satellite
View from above satellite

Ground track
Ground track

The orbit data is extracted from the following two-line orbital elements,

1 15495U 85009B   14304.11902084  .00000474  00000-0  54823-4 0  9309
2 15495 082.5265 006.5429 0018973 254.6091 105.3028 14.83332088607614
Epoch (UTC): 31 October 2014 02:51:23
Eccentricity: 0.0018973
inclination: 82.5265°
perigee height: 605 km
apogee height: 632 km
right ascension of ascending node: 6.5429°
argument of perigee: 254.6091°
revolutions per day: 14.83332088
mean anomaly at epoch: 105.3028°
orbit number at epoch: 60761

The dashed part of the orbit path shows where the satellite is in the earth's shadow,  

DLR